Regional Weather Roundup
Issued by NWS

Home | Current Version | Previous Version | Text Only | Print | Product List | Glossary On
Versions: 1 2 3 4 5 6 7 8 9 10 11 12 13 14 15 16 17 18 19 20 21 22 23 24 25 26 27 28 29 30 31 32 33 34 35 36 37 38 39 40 41 42 43 44 45 46 47 48 49 50
000
ASUS44 KLUB 230410
RWRTX
WEST TEXAS WEATHER ROUNDUP
NATIONAL WEATHER SERVICE LUBBOCK TX
1100 PM CDT THU JUN 22 2017

NOTE: "FAIR" INDICATES FEW OR NO CLOUDS BELOW 12,000 FEET WITH NO
SIGNIFICANT WEATHER AND/OR OBSTRUCTIONS TO VISIBILITY.

TXZ004-006>008-010-012-014-016-OKZ002-230500-
TEXAS PANHANDLE/OKLAHOMA PANHANDLE

CITY           SKY/WX    TMP DP  RH WIND       PRES   REMARKS
AMARILLO       CLOUDY    84  56  38 SE9       29.81F
BORGER         CLOUDY    85  59  41 SE17G33   29.74F
CANADIAN       CLOUDY    82  63  52 CALM      29.77R
DALHART        CLOUDY    78  61  55 E9        29.87R
DUMAS          CLOUDY    71  61  72 NE7G16    29.84R
HEREFORD       PTCLDY    86  57  37 S17       29.81R
PAMPA          CLOUDY    88  54  31 NW7G29    29.89R
PERRYTON       CLOUDY    79  61  53 W20       29.90R
$$

TXZ026-029-035-045-048-230500-
SOUTHERN PANHANDLE/SOUTH PLAINS/ROLLING PLAINS

CITY           SKY/WX    TMP DP  RH WIND       PRES   REMARKS
CHILDRESS      CLEAR     84  58  40 SE10      29.72R
SEMINOLE       CLEAR     89  50  25 NW29G36   29.89R
LUBBOCK        MOCLDY    89  53  29 S13       29.79R
PLAINVIEW      PTCLDY    83  54  36 S7        29.79R
SNYDER         CLEAR     86  56  35 SE7       29.75R
$$

TXZ052-054-060>062-072-078-127-140-154-169-230500-
PERMIAN BASIN/CONCHO VALLEY/BIG COUNTRY/EDWARDS PLATEAU

CITY           SKY/WX    TMP DP  RH WIND       PRES   REMARKS
ABILENE        CLEAR     81  60  48 SE10      29.72R
BIG SPRING     CLEAR     84  55  36 E6        29.77R
BROWNWOOD      CLEAR     77  64  65 CALM      29.72R
JUNCTION       CLEAR     88  59  37 S5        29.72R
MIDLAND        CLEAR     90  54  29 SE8       29.77R
ODESSA         CLEAR     89  51  27 S7        29.78R
SAN ANGELO     CLEAR     85  55  35 E3        29.71R
SONORA         CLEAR     86  59  39 CALM      29.79R
SWEETWATER     CLEAR     81  58  45 S8        29.77R
WINK           CLEAR     93  48  21 SE10      29.73R
$$

TXZ055-058-074-075-080-082-230500-
FAR WEST/SOUTHWEST MOUNTAINS/TRANS PECOS

CITY           SKY/WX    TMP DP  RH WIND       PRES   REMARKS
ALPINE         CLEAR     84  47  27 S7        29.95R
DRYDEN           N/A     90  58  33 E8        29.72R
EL PASO        MOCLDY   100  35  10 N14       29.79R
FORT STOCKTON  CLEAR     90  55  30 SE10      29.77R
GUADALUPE PASS CLOUDY    84  48  28 N10       29.96R
MARFA          CLEAR     77  51  40 SE3       29.96R
PECOS          CLEAR     91  49  23 E7        29.72R
PRESIDIO       FAIR      95  50  21 NE3       29.76R
$$

TXZ014-016-019-021>030-083-230500
TEXAS TECH WEST TEXAS MESONET/TEXAS PANHANDLE/NORTHERN SOUTH PLAINS

CITY           SKY/WX    TMP DP  RH WIND       PRES   REMARKS
ABERNATHY 5ENE   N/A     85  52  31 SE9       29.81R
AMARILLO 9NNE    N/A     87  56  35 SE13      29.78R
AMARILLO 7SSE    N/A     79  60  51 S8        29.82R
AMHERST 1NE      N/A     82  52  35 SE3       29.81F
BOOTLEG 11WNW    N/A     76  60  57 S10       29.87R
CANADIAN 6E      N/A     80  61  51 E5        29.77R
CAPROCK CYN SP   N/A     84  55  37 S3        29.77R
CHILDRESS 2NNE   N/A     81  58  45 SE9       29.72R
CLARENDON 2WSW   N/A     83  55  37 SE7       29.79R
CLAUDE 12SW      N/A     84  56  38 E17       29.79F
DIMMITT 2NE      N/A     81  60  48 E7        29.82S
FLOYDADA 2NNE    N/A     81  52  37 S7        29.80R
FRIONA 2NE       N/A     76  60  55 SE12      29.83R
GOODLETT 3W      N/A     81  58  46 E8        29.70R
HART 3N          N/A     82  60  48 NE13      29.82R
HEREFORD 2NW     N/A     84  55  36 SE10      29.81R
MCLEAN 1E        N/A     81  57  44 SE8       29.79R
MEMPHIS 1NE      N/A     83  58  41 E6        29.73R
MULESHOE 2SSW    N/A     82  54  39 S9        29.82R
OLTON 6S         N/A     82  58  44 SE16      29.79S
PALO DURO SP     N/A     95  44  17 NE2       29.80F
PAMPA 2E         N/A     80  60  50 NW15      29.87R
PLAINVIEW 1S     N/A     84  54  35 S6        29.81R
SILVERTON 7ESE   N/A     80  55  40 S5        29.81R
TULIA 2ENE       N/A     80  60  50 SW28G38   29.85R
TURKEY 2WSW      N/A     84  55  37 SE6       29.75R
UMBARGER 3NNE    N/A     83  57  41 E5        29.82R
$$

TXZ033>036-039>041-045>048-230500
TEXAS TECH WEST TEXAS MESONET/SOUTH PLAINS

CITY           SKY/WX    TMP DP  RH WIND       PRES   REMARKS
AIKEN 3WSW       N/A     79  63  58 S7        29.82R
ANDREWS 2NE      N/A     85  48  26 CALM      29.82R
ANTON 6SSW       N/A     85  51  30 SE12      29.76F
BROWNFIELD 2S    N/A     86  54  33 W15       29.84S
DENVR CTY 7WNW   N/A     73  57  57 NE29      29.87F
GAIL 2ESE        N/A     80  57  46 SE3       29.75R
LAMESA 2SE       N/A     85  50  30 SE5       29.79R
LEVELLAND 4S     N/A     96  36  12 NW5       29.77R
LUBBOCK 3WNW     N/A     88  51  27 S10       29.80R
MORTON 1ENE      N/A     84  51  32 S17       29.80S
ODONNELL 1N      N/A     84  50  31 SE5       29.80R
PLAINS 3N        N/A     87  47  24 SE23G35   29.79F
RALLS 1SE        N/A     80  52  38 S9        29.80R
REESE CENTER     N/A     85  48  28 S15       29.79F
SEAGRAVES 1SW    N/A     85  51  30 W35G45    29.89R
SEMINOLE 2NNE    N/A     85  51  30 NW33G47   29.88R
SLATON 2NE       N/A     81  51  34 S8        29.80R
SNYDER 3E        N/A     83  54  36 SE8       29.74R
SUNDOWN 8SW      N/A     86  49  27 S10       29.83R
TAHOKA 3NNE      N/A     80  54  40 SW6       29.81R
WOLFFORTH 6SSW   N/A     87  50  27 SW16      29.81F
$$

TXZ031-032-036>038-042>044-230500-
TEXAS TECH WEST TEXAS MESONET/ROLLING PLAINS

CITY           SKY/WX    TMP DP  RH WIND       PRES   REMARKS
ASPERMONT 3NE    N/A     86  56  35 SE9       29.70R
FLUVANNA 3WNW    N/A     81  52  35 SE8       29.77R
GRAHAM 5SSW      N/A     87  51  29 SE7       29.78R
GUTHRIE 10WSW    N/A     84  55  36 SE9       29.71R
HASKELL 1NW      N/A     83  56  39 SE8       29.70R
JAYTON 1SSE      N/A     84  55  36 SE7       29.71R
KNOX CITY 3NW    N/A     85  56  36 SE12      29.70R
LK A HENRY 1NW   N/A     85  53  34 S2        29.73R
NORTHFIELD 1S    N/A     85  56  35 SE13      29.72R
ODELL 4ENE       N/A     81  63  54 SE8       29.71R
PADUCAH 10SW     N/A     82  56  39 SE7       29.71R
POST 1NE         N/A     86  52  30 S6        29.75R
RRING SPRGS 3N   N/A     82  57  42 S8        29.75R
SEYMOUR 3NW      N/A     86  63  46 SE6       29.69R
SPUR 1W          N/A     84  54  35 SE6       29.72R
WHITE RVR 6NE    N/A     85  52  31 S3        29.76R
$$

TXZ052-054-060>062-072-078-127-140-154-169-230500-
TEXAS TECH WEST TEXAS MESONET/PERMIAN BASIN/
CONCHO VALLEY/BIG COUNTRY/EDWARDS PLATEAU

CITY           SKY/WX    TMP DP  RH WIND       PRES   REMARKS
COYANOSA 2N      N/A     94  54  25 SE10      29.74R
JUNCTION 1SSW    N/A     86  60  41 SW3       29.73R
MERTZON 3NNE     N/A     85  57  38 S6        29.75R
SAN ANGELO 7NW   N/A     87  49  27 E8        29.73R
STRLNG CT 4WSW   N/A     88  54  31 SE5       29.76R
ST LAWRNCE 5SW   N/A     87  53  31 S9        29.77R
SWEETWATR 11SW   N/A     83  58  41 SE10      29.77R
WALL 1E          N/A     87  54  32 SE8       29.74R
$$

TXZ055-058-074-075-080-082-230500-
TEXAS TECH WEST TEXAS MESONET/FAR WEST/SOUTHWEST MOUNTAINS/TRANS PECOS

CITY           SKY/WX    TMP DP  RH WIND       PRES   REMARKS
PRSMN GAP BBNP   N/A     92  48  21 NE9       29.75R
GUADLPE MTN NP   N/A     80  49  34 N3        29.98S
$$




USA.gov is the U.S. government's official web portal to all federal, state and local government web resources and services.